User: anonymous   Login
Location: Caltech
(34.1382°N, 118.1253°W)
Time: 09:21:55
(UTC-07:00)
Language:

PANSAT - Orbit

View from above orbital plane
View from above orbital plane
View from above satellite
View from above satellite

Ground track
Ground track

The orbit data is extracted from the following two-line orbital elements,

1 25520U 98064B   17172.79855689 +.00000641 +00000-0 +14709-4 0  9992
2 25520 028.4562 312.9690 0005490 056.6626 303.4494 15.28383737034991
Epoch (UTC): 21 June 2017 19:09:55
Eccentricity: 0.0005490
inclination: 28.4562°
perigee height: 477 km
apogee height: 484 km
right ascension of ascending node: 312.9690°
argument of perigee: 56.6626°
revolutions per day: 15.28383737
mean anomaly at epoch: 303.4494°
orbit number at epoch: 3499

The dashed part of the orbit path shows where the satellite is in the earth's shadow,  

DLR